User: anonymous   Login
Location: Meriden
(44.0740°N, 93.3870°W)
Time: 03:26:33
(UTC-05:00)
Language:

Hamsat - Orbit

View from above orbital plane
View from above orbital plane
View from above satellite
View from above satellite

Ground track
Ground track

The orbit data is extracted from the following two-line orbital elements,

1 28650U 05017B   15089.50350453  .00003738  00000-0  42088-3 0  9998
2 28650 097.5717 085.5638 0022672 293.9081 065.9761 14.87043076535754
Epoch (UTC): 30 March 2015 12:05:02
Eccentricity: 0.0022672
inclination: 97.5717°
perigee height: 591 km
apogee height: 623 km
right ascension of ascending node: 85.5638°
argument of perigee: 293.9081°
revolutions per day: 14.87043076
mean anomaly at epoch: 65.9761°
orbit number at epoch: 53575

The dashed part of the orbit path shows where the satellite is in the earth's shadow,  

DLR